TITAN 3C TRANSTAGE DEB, 43454

Orbit data source: Space-Track

TITAN 3C TRANSTAGE DEB, 43454 is space debris in GEO originally from a launch on Sun, 09 Feb 1969 UTC launched from the Air Force Eastern Test Range (AFETR). Debris objects in space refer to the collection of defunct objects orbiting the Earth. Examples of debris include non-operational satellites, rocket bodies, and fragments generated from explosions, collisions, or faulty payload assembly.

Not visible in the next 10 days
Identifier
43454, 1969-013M
Orbit
GEO
Last TLE update
1 day ago
Origin
Manufacturer
Martin Marietta
Mission
Spacecraft
Bus & Motor
Unknown
Mass
Unknown
Launch date (UTC)
1969-02-09 (56 years ago)
Launch vehicle
Unknown
Launch site
Air Force Eastern Test Range (AFETR)
Object type
Payload
Rocket body
Debris
Shape & HBR
Unknown
Radar Cross Section
RCS unknown

Expand to show TLE details & history

TLE from 1 day ago
0 TITAN 3C TRANSTAGE DEB
1 43454U 69013M   25182.92010843 -.00000215  00000-0  00000-0 0  9993
2 43454   0.7082 180.5886 0555522 286.3153 259.2714  1.02845503 27037
Epoch: 2025-07-01T22:04Z
TLE epoch observation values (Epoch: 2025-07-01T22:04:57.368Z)
Latitude
0.00119°
Longitude
108.5524°
Altitude
35,629.369 km
Speed
3.06 km/s
True Right ascension
00h 00m 00s
True Declination
0° 00' 04"
Sunlit
Object was in daylight at epoch
Visualization orbit readout
Latitude
-0.49271°
Longitude
-116.79675°
Altitude
33,008.418 km
Speed
3.26 km/s
Apparent Right ascension
08h 36m 54s
Apparent Declination
-5° 56' 16"
Sunlit
Object is in daylight
Visualization observer readout
Local Sidereal Time
17:19:04
Azimuth
293.936° NW
Elevation
-34.212°
Doppler factor
1
Orbital elements
Apogee altitude
37,384.431 km
Perigee altitude
32,778.108 km
Semi-major axis
41,459.406 km
Eccentricity
0.05555
Inclination
0.7082°
RAAN
180.5886°
Arg. of periapsis
286.3153°
True anomaly
Unknown
Mean anomaly
259.2714°
Eccentric anomaly
Unknown
Mean motion
0.2571 °/min
Orbital period
1,400.21 mins
BSTAR
0
Loading historical data...
43454 neighbors
Loading maneuver chart data...
Loading SW <> Apogee altitude chart data...

TITAN 3C TRANSTAGE DEB Visibility

Observer location: undefined°, undefined°

TITAN 3C TRANSTAGE DEB is likely not visible in the next few days
Span
Click to sort rows by Start time (UTC) header in descending order
Start Az.
Max El. time (UTC)
Max El. Az.
Max El.
End time (UTC)
End Az.
|